Hibbing, MN

7:44 AM CDT on June 25, 2017 (GMT -0500)
Chisholm-hibbing

Weather History for KHIB - April, 2013

Change the Weather History Date:

Saturday, April 13, 2013

  Actual Average Record
Temperature  
Mean Temperature 25 °F -  
Max Temperature 36 °F 48 °F 71 °F (2003)
Min Temperature 16 °F 28 °F 14 °F (2007)
Degree Days  
Heating Degree Days 40    
Moisture  
Dew Point 17 °F    
Average Humidity 73    
Maximum Humidity 88    
Minimum Humidity 50    
Precipitation  
Precipitation 0.00 in - - ()
Sea Level Pressure  
Sea Level Pressure 29.90 in    
Wind  
Wind Speed 5 mph (NNW)    
Max Wind Speed 12 mph    
Max Gust Speed -    
Visibility 10 miles    
Events Snow    
Averages and records for this station are not official NWS values.
T = Trace of Precipitation, MM = Missing Value Source: NWS Daily Summary

Daily Weather History Graph

Daily Weather History Graph

Search for Another Location

Airport or City:

Trip Planner

Search our weather history database for the weather conditions in past years. The results will help you decide how hot, cold, wet, or windy it might be!

Date:

Astronomy

Apr. 13, 2013 Rise Set
Actual Time 6:26 AM CDT 7:58 PM CDT
Civil Twilight 5:54 AM CDT 8:30 PM CDT
Nautical Twilight 5:15 AM CDT 9:09 PM CDT
Astronomical Twilight 4:33 AM CDT 9:51 PM CDT
Moon 8:06 AM CDT (4/13) 11:34 PM CDT (4/13)
Length of Visible Light 14h 36m
Length of Day
13h 32m
Waxing Crescent, 10% of the Moon is Illuminated
Apr 13
Waxing Crescent
Apr 18
First Quarter
Apr 25
Full
May 2
Last Quarter
May 9
New

Hourly Weather History & Observations

Time (CDT) Temp. Windchill Dew Point Humidity Pressure Visibility Wind Dir Wind Speed Gust Speed Precip Events Conditions
12:53 AM 23.0 °F 17.0 °F 18.0 °F 81% 29.88 in 3.0 mi North 4.6 mph - 0.00 in Snow Light Snow
1:53 AM 21.9 °F 15.7 °F 17.1 °F 82% 29.88 in 10.0 mi NNW 4.6 mph - 0.00 in   Mostly Cloudy
2:53 AM 19.0 °F 12.3 °F 15.1 °F 85% 29.87 in 8.0 mi NNW 4.6 mph - N/A   Overcast
3:53 AM 17.1 °F 10.0 °F 12.9 °F 84% 29.86 in 10.0 mi North 4.6 mph - N/A   Mostly Cloudy
4:53 AM 17.1 °F 7.6 °F 12.9 °F 84% 29.86 in 10.0 mi NNW 6.9 mph - N/A   Scattered Clouds
5:40 AM 21.2 °F 13.6 °F 15.8 °F 80% 29.79 in 9.0 mi NNW 5.8 mph - 0.00 in   Mostly Cloudy
5:53 AM 19.9 °F 12.1 °F 16.0 °F 85% 29.86 in 10.0 mi NNW 5.8 mph - 0.00 in   Mostly Cloudy
6:11 AM 19.4 °F 11.5 °F 15.8 °F 86% 29.79 in 10.0 mi NNW 5.8 mph - N/A   Scattered Clouds
6:53 AM 16.0 °F 10.4 °F 12.9 °F 88% 29.87 in 10.0 mi NNW 3.5 mph - N/A   Clear
7:53 AM 16.0 °F 7.4 °F 12.9 °F 88% 29.89 in 10.0 mi NNW 5.8 mph - N/A   Clear
8:53 AM 23.0 °F 17.0 °F 18.0 °F 81% 29.88 in 10.0 mi North 4.6 mph - N/A   Overcast
9:33 AM 24.8 °F 16.1 °F 19.4 °F 80% 29.82 in 10.0 mi North 8.1 mph - 0.00 in   Overcast
9:53 AM 26.1 °F 18.4 °F 19.0 °F 75% 29.88 in 10.0 mi North 6.9 mph - 0.00 in   Overcast
10:45 AM 28.4 °F 20.4 °F 19.4 °F 69% 29.82 in 10.0 mi North 8.1 mph - N/A   Overcast
10:53 AM 30.0 °F 22.4 °F 19.0 °F 64% 29.88 in 10.0 mi NNW 8.1 mph - N/A   Overcast
11:53 AM 28.9 °F 19.2 °F 19.0 °F 67% 29.90 in 10.0 mi NNW 11.5 mph - N/A   Overcast
12:53 PM 30.9 °F 23.5 °F 17.1 °F 57% 29.90 in 10.0 mi North 8.1 mph - N/A   Overcast
1:53 PM 32.0 °F 24.8 °F 18.0 °F 56% 29.90 in 10.0 mi North 8.1 mph - N/A   Overcast
2:53 PM 33.1 °F 27.7 °F 18.0 °F 54% 29.92 in 10.0 mi Variable 5.8 mph - N/A   Overcast
3:53 PM 33.1 °F 28.7 °F 17.1 °F 52% 29.93 in 10.0 mi North 4.6 mph - N/A   Overcast
4:53 PM 34.0 °F 31.0 °F 17.1 °F 50% 29.93 in 10.0 mi North 3.5 mph - N/A   Overcast
5:53 PM 33.1 °F 27.7 °F 18.0 °F 54% 29.94 in 10.0 mi NNE 5.8 mph - N/A   Overcast
7:53 PM 32.0 °F - 18.0 °F 56% 29.96 in 10.0 mi Calm Calm - N/A   Overcast
8:53 PM 25.0 °F - 19.0 °F 78% 29.98 in 10.0 mi Calm Calm - N/A   Clear
9:53 PM 21.9 °F 17.2 °F 17.1 °F 82% 29.99 in 10.0 mi NW 3.5 mph - N/A   Clear
10:53 PM 19.9 °F - 15.1 °F 81% 30.01 in 10.0 mi Calm Calm - N/A   Clear
11:53 PM 18.0 °F - 12.9 °F 81% 30.01 in 10.0 mi Calm Calm - N/A   Clear